Regional Weather Roundup
Issued by NWS

Home | Current Version | Previous Version | Graphics & Text | Print | Product List | Glossary On
Versions: 1 2 3 4 5 6 7 8 9 10 11 12 13 14 15 16 17 18 19 20 21 22 23 24 25 26 27 28 29 30 31 32 33 34 35 36 37 38 39 40 41 42 43 44 45 46 47 48 49 50
000
ASUS43 KIND 182359
RWRIN

WEATHER ROUNDUP FOR INDIANA
NATIONAL WEATHER SERVICE INDIANAPOLIS IN
800 PM EDT SAT APR 18 2015

NOTE: "FAIR" INDICATES FEW OR NO CLOUDS BELOW 12,000 FEET WITH NO
SIGNIFICANT WEATHER AND/OR OBSTRUCTIONS TO VISIBILITY.

* - STATION DOES NOT REPORT WEATHER SUCH AS PRECIPITATION OR FOG.

+ - STATION NOT QUALITY CONTROLLED BY THE NATIONAL WEATHER SERVICE.
    USE DATA WITH CAUTION...ESPECIALLY DEWPOINT AND RELATIVE
    HUMIDITY OBSERVATIONS.

INZ001>003-010>013-019-020-190100-
NORTHWEST INDIANA

CITY           SKY/WX    TMP DP  RH WIND       PRES   REMARKS
GARY /AIRPORT/ MOCLDY    45  34  65 N6G20     30.03F

$$

LMZ046-743>745-190100-
SOUTHERN LAKE MICHIGAN

STATION/POSITION TIME  TEMP WIND        PRES
                       AIR  DIR/SP/G
                 (UTC) (F)  (DEG/KT/KT) (MB)
BURNS HARBOR     2300   42  330/  5/  8 1017.3F
MICHIGAN CITY    2300   44  320/  4/  6   N/A
4NW MICH CITY    2300   41  300/  6/  8   N/A

$$

INZ004-005-014>016-021>024-190100-
NORTH CENTRAL INDIANA

CITY           SKY/WX    TMP DP  RH WIND       PRES   REMARKS
GOSHEN         MOCLDY    68  48  48 E17       29.98F
6HR MIN TEMP:  68; 6HR MAX TEMP:  78;

SOUTH BEND     MOCLDY    61  45  55 NW5       29.98F
6HR MIN TEMP:  61; 6HR MAX TEMP:  80;


$$

INZ006>009-017-018-025>027-190100-
NORTHEAST INDIANA

CITY           SKY/WX    TMP DP  RH WIND       PRES   REMARKS
ANGOLA *+      PTCLDY    66  41  39 E15       30.04R
FORT WAYNE     CLOUDY    64  41  42 E14       30.01S
6HR MIN TEMP:  64; 6HR MAX TEMP:  80;


$$

INZ028-029-035-036-043>045-051>053-190100-
WEST CENTRAL INDIANA

CITY           SKY/WX    TMP DP  RH WIND       PRES   REMARKS
GREENCASTLE +  PTCLDY    70  43  37 E5        29.96R
LAFAYETTE      MOCLDY    72  47  40 S6        29.94S
6HR MIN TEMP:  72; 6HR MAX TEMP:  77;

TERRE HAUTE    PTCLDY    70  50  49 E8        29.93S
6HR MIN TEMP:  70; 6HR MAX TEMP:  76;


$$

INZ030>032-037>040-046>048-054>057-064-065-190100-
CENTRAL INDIANA

CITY           SKY/WX    TMP DP  RH WIND       PRES   REMARKS
COLUMBUS       PTCLDY    68  45  42 E7        29.95S
INDIANAPOLIS   MOCLDY    71  47  42 E8        29.94S
6HR MIN TEMP:  71; 6HR MAX TEMP:  76;

-EAGLE CREEK   MOCLDY    72  47  40 E8        29.95S
6HR MIN TEMP:  72; 6HR MAX TEMP:  76;

KOKOMO *+      CLOUDY    72  50  46 SE7       29.95F
6HR MIN TEMP:  72; 6HR MAX TEMP:  79;

MT COMFORT *+  MOCLDY    73  32  21 SE6       29.97S
SHELBYVILLE    MOCLDY    71  49  45 E7        29.95S
6HR MIN TEMP:  71; 6HR MAX TEMP:  80;


$$

INZ033-034-041-042-049-050-058-059-190100-
EAST CENTRAL INDIANA

CITY           SKY/WX    TMP DP  RH WIND       PRES   REMARKS
MUNCIE         CLOUDY    72  49  44 SE3       29.96F
6HR MIN TEMP:  72; 6HR MAX TEMP:  78;


$$

INZ060-061-067>069-081>083-085>088-190100-
SOUTHWEST INDIANA

CITY           SKY/WX    TMP DP  RH WIND       PRES   REMARKS
EVANSVILLE     MOCLDY    75  55  49 NE5       29.88F
6HR MIN TEMP:  74; 6HR MAX TEMP:  80;

HUNTINGBURG *+ MOCLDY    72  48  43 E8        29.91S
6HR MIN TEMP:  72; 6HR MAX TEMP:  81;


$$

INZ062-063-066-070>080-084-089>092-190100-
SOUTH CENTRAL AND SOUTHEAST INDIANA

CITY           SKY/WX    TMP DP  RH WIND       PRES   REMARKS
BLOOMINGTON    PTCLDY    74  43  32 E8        29.94S
6HR MIN TEMP:  74; 6HR MAX TEMP:  78;

MADISON *+     MOCLDY    72  37  28 E5        29.97R

$$



USA.gov is the U.S. government's official web portal to all federal, state and local government web resources and services.